Regional Weather Roundup
Issued by NWS Jackson, KY

Home | Current Version | Previous Version | Text Only | Print | Product List | Glossary Off
Versions: 1 2 3 4 5 6 7 8 9 10 11 12 13 14 15 16 17 18 19 20 21 22 23 24 25 26 27

000
ASUS43 KJKL 301210
RWRJKL

EAST KENTUCKY HOURLY WEATHER ROUNDUP
NATIONAL WEATHER SERVICE JACKSON KY
800 AM EDT SAT APR 30 2016

NOTE: "FAIR" INDICATES FEW OR NO CLOUDS BELOW 12,000 FEET WITH
NO SIGNIFICANT WEATHER AND/OR OBSTRUCTIONS TO VISIBILITY.

* THESE REPORTS ARE NOT UNDER NWS QUALITY CONTROL AND MAY NOT
  REPORT WEATHER SUCH AS PRECIPITATION AND FOG.

KYZ079-080-083-085-087-088-110-112-115-119-120-301300
...EASTERN KENTUCKY...

CITY           SKY/WX    TMP DP  RH WIND       PRES   REMARKS
JACKSON        CLOUDY    57  51  80 CALM      30.00S
6HR MIN TEMP:  56; 6HR MAX TEMP:  60;

LONDON         CLOUDY    61  51  70 E6        29.97F
6HR MIN TEMP:  60; 6HR MAX TEMP:  63;

SOMERSET*      CLOUDY    59  50  72 CALM      29.96S
MONTICELLO*    PTSUNNY   62  55  77 N12       29.95F
6HR MIN TEMP:  60; 6HR MAX TEMP:  64;

WILLIAMSBURG*  CLOUDY    59  55  88 E5        29.96F
MIDDLESBORO*   CLOUDY    58  55  91 CALM      29.98F
6HR MIN TEMP:  55; 6HR MAX TEMP:  60;

HARLAN APT*      N/A     59  54  82 CALM      30.00F
HAZARD APT*    CLOUDY    59  55  88 CALM      30.00S
BLACK MTN*       N/A     61  45  55 S2          N/A
PIKE CO APT*     N/A     58  54  85 NE3       30.02S
BIG SANDY APT* CLOUDY    58  53  84 CALM      30.02S
6HR MIN TEMP:  56; 6HR MAX TEMP:  59;

MOREHEAD APT*  CLOUDY    55  50  82 E6        30.03S
$$

KYZ035-036-041-042-044-050-067-078-099-301300
...CENTRAL KENTUCKY...

CITY           SKY/WX    TMP DP  RH WIND       PRES   REMARKS
MT STERLING*   CLOUDY    55  52  88 E8        30.01S
FLEMING/MASON* RAIN      54  51  89 E7        30.04S
DANVILLE*      CLOUDY    57  54  88 E6        29.96F
RICHMOND*      CLOUDY    59  52  77 E7        29.97S
LEXINGTON      CLOUDY    59  51  75 E10       29.97F
6HR MIN TEMP:  58; 6HR MAX TEMP:  61; 6HR PCP: TRACE;

FRANKFORT      CLOUDY    59  50  72 E9        29.95F
6HR MIN TEMP:  58; 6HR MAX TEMP:  61;

LOUISVILLE     CLOUDY    61  52  72 E7        29.95S
6HR MIN TEMP:  61; 6HR MAX TEMP:  64; 6HR PCP: TRACE;

LEBANON*       PTSUNNY   59  54  82 E7        29.93F
BOWLING GREEN  RAIN      62  58  86 W3        29.96R FOG
6HR MIN TEMP:  62; 6HR MAX TEMP:  65; 6HR PCP:  0.02;

$$

KYZ091>093-OHZ055-061-077-WVZ005-015-034-035-042-301300
...SOUTHERN OHIO/WEST VIRGINIA...

CITY           SKY/WX    TMP DP  RH WIND       PRES   REMARKS
COVINGTON      CLOUDY    53  49  86 E12       30.01F
COLUMBUS       CLOUDY    45  42  89 E8        30.10R
DAYTON         PTSUNNY   48  43  82 E9        30.07S
WILMINGTON     CLOUDY    49  45  86 NE7       30.06R
HUNTINGTON     LGT RAIN  54  50  86 NE7       30.03R
CHARLESTON     PTSUNNY   56  50  80 NE5       30.05F
PINEVILLE*     CLOUDY    60  49  69 MISG      30.09F
BECKLEY        LGT RAIN  56  50  80 E3        30.07S
$$

VAZ002-007-008-TNZ017-027-036-066-071-301300
...SOUTHWEST VIRGINIA/EAST TENNESSEE...

CITY           SKY/WX    TMP DP  RH WIND       PRES   REMARKS
WISE*          PTSUNNY   59  45  58 CALM      30.06R
BRISTOL        CLOUDY    59  54  83 CALM      30.01R
MORRISTOWN*    SUNNY     63  52  67 E5        29.96S
KNOXVILLE      PTSUNNY   62  55  77 NE5       29.95S
OAK RIDGE      CLOUDY    63  54  72 CALM      29.97R
CROSSVILLE     CLOUDY    72  49  44 VRB3      29.98R
NASHVILLE      LGT RAIN  65  60  84 N3        29.92R
$$

...KEY TO REMARKS...
VSB - VISIBILITY IN MILES
WCI - WIND CHILL INDEX
HX  - HEAT INDEX

$$




USA.gov is the U.S. government's official web portal to all federal, state and local government web resources and services.